Location: Newark
(42.8481°N, 0.4872°E)
Time: 07:47:04
(UTC+00:00)

Vanguard 1 - Pass Details

Date: 04 November 2020
Orbit: 650 x 3833 km, 34.2° (Epoch: 28 November)

Event Time Altitude Azimuth Distance (km) Brightness Sun altitude
Rises 07:02:47 0° 166° (SSE) 5,788 14.6 3.6°
Reaches altitude 10° 07:10:44 10° 139° (SE) 5,586 15.4 4.9°
Maximum altitude 07:15:54 12° 121° (ESE) 5,850 16.8 5.7°
Drops below altitude 10° 07:21:40 10° 104° (ESE) 6,408 16.2 6.7°
Sets 07:32:58 0° 80° (E) 7,902 15.5 8.5°
